Date String (YYYY-MM-DD hh:mm:ss) UTC,Instrument flags,absolute air pressure of the measurement (hPa),sample flow rate (lpm),inlet stack bypass flow (lpm),air temperature of the measurement (°C),ambient temperature measured by the external sensor (°C),aerosol sample conditioner tube jacket temperature (°C),OPC LED temperature (°C),internal box temperature (°C),relative humidity of the measurement (%),span deviation,mass concentration of particles derived from Lorenz-Mie calculation of OPC scattering (μg/m³),mass concentration of particles derived from Lorenz-Mie calculation of OPC scattering (μg/m³),mass concentration of particles derived from Lorenz-Mie calculation of OPC scattering (μg/m³)
DateTimeUTC,F1_M11,P_M11,Q1_M11,Q2_M11,T1_M11,T2_M11,T3_M11,T4_M11,T5_M11,U1_M11,ZSPAN_M11,X2_M11,X0_M11,X1_M11
2023-09-28 23:00:00,SystemResetWarning,0825.2,5.00,000.00,027.8,024.9,000.0,036.2,029.4,14.0,0000.0,0006.29,0018.27,0004.72
2023-09-28 23:01:00,SystemResetWarning,0825.2,5.01,000.00,027.8,025.3,000.0,036.2,029.5,14.0,0000.0,0006.34,0018.94,0004.73
2023-09-28 23:02:00,SystemResetWarning,0825.2,5.00,000.00,027.8,025.7,000.0,036.2,029.6,14.1,0000.0,0006.36,0018.88,0004.73
2023-09-28 23:03:00,SystemResetWarning,0825.2,5.00,000.00,027.8,026.1,000.0,036.2,029.7,13.9,0000.0,0006.34,0018.03,0004.72
2023-09-28 23:04:00,SystemResetWarning,0825.2,5.00,000.00,027.9,026.4,000.0,036.3,029.7,13.8,0000.0,0006.32,0017.71,0004.72
2023-09-28 23:05:00,SystemResetWarning,0825.2,5.00,000.00,027.9,026.7,000.0,036.3,029.8,13.9,0000.0,0006.29,0018.18,0004.73
2023-09-28 23:06:00,SystemResetWarning,0825.2,4.99,000.00,028.0,026.9,000.0,036.3,029.9,14.2,0000.0,0006.29,0019.18,0004.73
2023-09-28 23:07:00,SystemResetWarning,0825.2,5.00,000.00,028.0,025.7,000.0,036.3,029.8,14.1,0000.0,0006.33,0019.85,0004.72
2023-09-28 23:08:00,SystemResetWarning,0825.1,5.00,000.00,027.9,024.2,000.0,036.2,029.6,14.5,0000.0,0006.32,0021.79,0004.72
2023-09-28 23:09:00,SystemResetWarning,0825.1,5.02,000.00,027.9,024.1,000.0,036.2,029.5,14.6,0000.0,0006.32,0022.27,0004.70
2023-09-28 23:10:00,SystemResetWarning,0825.1,5.01,000.00,027.8,024.5,000.0,036.2,029.4,14.7,0000.0,0006.34,0023.97,0004.70
2023-09-28 23:11:00,SystemResetWarning,0825.1,5.00,000.00,027.8,024.9,000.0,036.2,029.4,14.6,0000.0,0006.34,0024.26,0004.70
2023-09-28 23:12:00,SystemResetWarning,0825.1,5.00,000.00,027.8,025.4,000.0,036.2,029.5,14.6,0000.0,0006.31,0023.90,0004.68
2023-09-28 23:13:00,SystemResetWarning,0825.2,5.00,000.00,027.8,025.8,000.0,036.2,029.6,14.7,0000.0,0006.28,0022.95,0004.67
2023-09-28 23:14:00,SystemResetWarning,0825.2,5.00,000.00,027.8,026.1,000.0,036.3,029.7,14.8,0000.0,0006.28,0023.48,0004.67
2023-09-28 23:15:00,SystemResetWarning,0825.2,4.99,000.00,027.9,026.5,000.0,036.3,029.8,14.8,0000.0,0006.28,0023.36,0004.66
2023-09-28 23:16:00,SystemResetWarning,0825.2,5.01,000.00,027.9,026.7,000.0,036.3,029.8,14.7,0000.0,0006.25,0022.03,0004.64
2023-09-28 23:17:00,SystemResetWarning,0825.2,5.00,000.00,028.0,026.9,000.0,036.3,029.9,14.5,0000.0,0006.23,0020.94,0004.63
2023-09-28 23:18:00,SystemResetWarning,0825.2,4.98,000.00,028.0,026.1,000.0,036.3,029.9,14.4,0000.0,0006.21,0020.27,0004.63
2023-09-28 23:19:00,SystemResetWarning,0825.2,5.00,000.00,028.0,024.5,000.0,036.3,029.7,14.6,0000.0,0006.16,0018.44,0004.63
2023-09-28 23:20:00,SystemResetWarning,0825.2,5.01,000.00,027.9,024.1,000.0,036.2,029.6,14.8,0000.0,0006.16,0018.55,0004.62
2023-09-28 23:21:00,SystemResetWarning,0825.2,5.00,000.00,027.8,024.4,000.0,036.2,029.4,14.9,0000.0,0006.13,0017.89,0004.61
2023-09-28 23:22:00,SystemResetWarning,0825.2,5.00,000.00,027.8,024.8,000.0,036.2,029.4,14.8,0000.0,0006.12,0018.65,0004.61
2023-09-28 23:23:00,SystemResetWarning,0825.2,5.00,000.00,027.8,025.3,000.0,036.2,029.5,14.9,0000.0,0006.14,0018.42,0004.61
2023-09-28 23:24:00,SystemResetWarning,0825.2,5.00,000.00,027.8,025.7,000.0,036.2,029.6,15.0,0000.0,0006.19,0018.65,0004.60
2023-09-28 23:25:00,SystemResetWarning,0825.2,5.00,000.00,027.8,026.1,000.0,036.3,029.7,15.1,0000.0,0006.17,0018.40,0004.58
2023-09-28 23:26:00,SystemResetWarning,0825.2,5.01,000.00,027.9,026.4,000.0,036.3,029.8,15.1,0000.0,0006.23,0018.86,0004.57
2023-09-28 23:27:00,SystemResetWarning,0825.2,5.00,000.00,027.9,026.7,000.0,036.3,029.8,15.2,0000.0,0006.20,0019.09,0004.57
2023-09-28 23:28:00,SystemResetWarning,0825.2,5.00,000.00,028.0,026.9,000.0,036.3,029.9,15.2,0000.0,0006.19,0019.39,0004.57
2023-09-28 23:29:00,SystemResetWarning,0825.2,4.98,000.00,028.1,026.4,000.0,036.3,029.9,15.2,0000.0,0006.17,0020.38,0004.56
2023-09-28 23:30:00,SystemResetWarning,0825.2,5.00,000.00,028.0,024.6,000.0,036.3,029.7,15.1,0000.0,0006.23,0020.50,0004.55
2023-09-28 23:31:00,SystemResetWarning,0825.3,5.01,000.00,027.9,024.0,000.0,036.2,029.6,15.1,0000.0,0006.18,0020.29,0004.54
2023-09-28 23:32:00,SystemResetWarning,0825.2,5.01,000.00,027.9,024.3,000.0,036.2,029.5,15.3,0000.0,0006.24,0021.25,0004.54
2023-09-28 23:33:00,SystemResetWarning,0825.2,4.99,000.00,027.8,024.7,000.0,036.2,029.4,15.2,0000.0,0006.29,0019.97,0004.54
2023-09-28 23:34:00,SystemResetWarning,0825.3,5.00,000.00,027.8,025.1,000.0,036.2,029.4,15.2,0000.0,0006.28,0019.30,0004.54
2023-09-28 23:35:00,SystemResetWarning,0825.3,5.01,000.00,027.8,025.6,000.0,036.2,029.5,15.3,0000.0,0006.31,0021.53,0004.54
2023-09-28 23:36:00,SystemResetWarning,0825.3,5.01,000.00,027.8,026.0,000.0,036.3,029.6,15.3,0000.0,0006.36,0022.12,0004.54
2023-09-28 23:37:00,SystemResetWarning,0825.3,4.99,000.00,027.9,026.3,000.0,036.3,029.7,15.2,0000.0,0006.36,0022.92,0004.55
2023-09-28 23:38:00,SystemResetWarning,0825.3,4.99,000.00,027.9,026.6,000.0,036.3,029.8,15.2,0000.0,0006.45,0023.13,0004.56
2023-09-28 23:39:00,SystemResetWarning,0825.3,5.00,000.00,028.0,026.8,000.0,036.3,029.9,15.2,0000.0,0006.47,0023.18,0004.54
2023-09-28 23:40:00,SystemResetWarning,0825.3,5.00,000.00,028.0,027.0,000.0,036.4,030.0,15.2,0000.0,0006.47,0022.86,0004.53
2023-09-28 23:41:00,SystemResetWarning,0825.3,4.99,000.00,028.1,026.1,000.0,036.3,029.9,15.2,0000.0,0006.48,0022.89,0004.53
2023-09-28 23:42:00,SystemResetWarning,0825.2,5.02,000.00,028.0,024.5,000.0,036.3,029.7,15.3,0000.0,0006.44,0023.17,0004.52
2023-09-28 23:43:00,SystemResetWarning,0825.3,5.01,000.00,027.9,024.1,000.0,036.2,029.6,15.4,0000.0,0006.40,0022.83,0004.51
2023-09-28 23:44:00,SystemResetWarning,0825.3,5.00,000.00,027.8,024.4,000.0,036.2,029.4,15.5,0000.0,0006.35,0023.10,0004.51
2023-09-28 23:45:00,SystemResetWarning,0825.3,5.01,000.00,027.8,024.8,000.0,036.2,029.4,15.6,0000.0,0006.36,0024.62,0004.52
2023-09-28 23:46:00,SystemResetWarning,0825.2,5.00,000.00,027.8,025.2,000.0,036.2,029.5,15.8,0000.0,0006.34,0023.33,0004.53
2023-09-28 23:47:00,SystemResetWarning,0825.3,4.99,000.00,027.8,025.7,000.0,036.2,029.5,15.7,0000.0,0006.27,0023.66,0004.52
2023-09-28 23:48:00,SystemResetWarning,0825.3,5.00,000.00,027.8,026.0,000.0,036.3,029.6,15.5,0000.0,0006.25,0023.80,0004.52
2023-09-28 23:49:00,SystemResetWarning,0825.3,5.00,000.00,027.9,026.3,000.0,036.3,029.7,15.5,0000.0,0006.20,0023.80,0004.52
2023-09-28 23:50:00,SystemResetWarning,0825.3,5.00,000.00,027.9,026.6,000.0,036.3,029.8,15.3,0000.0,0006.17,0025.24,0004.51
2023-09-28 23:51:00,SystemResetWarning,0825.2,5.00,000.00,028.0,026.8,000.0,036.3,029.9,15.2,0000.0,0006.20,0026.29,0004.52
2023-09-28 23:52:00,SystemResetWarning,0825.3,5.00,000.00,028.0,027.0,000.0,036.4,030.0,14.8,0000.0,0006.14,0027.49,0004.51
2023-09-28 23:53:00,SystemResetWarning,0825.3,4.99,000.00,028.1,026.5,000.0,036.4,030.0,15.0,0000.0,0006.17,0027.64,0004.51
2023-09-28 23:54:00,SystemResetWarning,0825.3,5.00,000.00,028.0,024.6,000.0,036.3,029.7,14.8,0000.0,0006.20,0027.75,0004.52
2023-09-28 23:55:00,SystemResetWarning,0825.2,5.01,000.00,027.9,023.9,000.0,036.2,029.6,15.0,0000.0,0006.16,0027.21,0004.50
2023-09-28 23:56:00,SystemResetWarning,0825.3,5.01,000.00,027.9,024.1,000.0,036.2,029.4,14.8,0000.0,0006.13,0025.42,0004.48
2023-09-28 23:57:00,SystemResetWarning,0825.3,4.99,000.00,027.8,024.5,000.0,036.2,029.4,14.8,0000.0,0006.09,0024.83,0004.44
2023-09-28 23:58:00,SystemResetWarning,0825.3,5.00,000.00,027.8,025.0,000.0,036.3,029.4,14.9,0000.0,0006.14,0024.61,0004.42
2023-09-28 23:59:00,SystemResetWarning,0825.3,5.00,000.00,027.8,025.4,000.0,036.3,029.5,14.6,0000.0,0006.04,0022.59,0004.40
